When you browse on this site, cookies collect data to enhance your experience and personalize the content and advertising you see.
Visit our Privacy Policy to learn more. By continuing to use the site, you agree to this use of cookies and data.
  • In Germany
  • List of Countries
  • For 7 days
  • Water Temperature
  • Weather Map
  • Weather Widgets
  • user-avatar
    Login

    Hourly Weather Volchevka

    Today, 16 October, Wednesday

    Time Temperature Precipitation Wind Pressure Humidity
    00:00 0°C° 0 mm 3 mps 735 mmHg 89%
    01:00 0°C° 0 mm 3 mps 735 mmHg 89%
    02:00 0°C° 0 mm 3 mps 736 mmHg 88%
    03:00 0°C° 0 mm 3 mps 736 mmHg 87%
    04:00 0°C° 0 mm 3 mps 736 mmHg 86%
    05:00 0°C° 0.1 mm 3 mps 737 mmHg 87%
    06:00 0°C° 0.1 mm 3 mps 737 mmHg 88%
    07:00 -1°C° 0.1 mm 4 mps 738 mmHg 90%
    08:00 0°C° 0.1 mm 4 mps 738 mmHg 86%
    09:00 0°C° 0.1 mm 4 mps 739 mmHg 82%
    10:00 +1°C° 0.1 mm 4 mps 739 mmHg 78%
    11:00 +1°C° 0 mm 4 mps 739 mmHg 76%
    12:00 +1°C° 0 mm 4 mps 740 mmHg 74%
    13:00 +1°C° 0 mm 4 mps 740 mmHg 72%
    14:00 +1°C° 0 mm 4 mps 741 mmHg 73%
    15:00 +1°C° 0 mm 4 mps 741 mmHg 73%
    16:00 0°C° 0 mm 5 mps 742 mmHg 74%
    17:00 0°C° 0 mm 4 mps 743 mmHg 76%
    18:00 -1°C° 0 mm 4 mps 743 mmHg 78%
    19:00 -2°C° 0 mm 4 mps 743 mmHg 80%
    20:00 -2°C° 0 mm 4 mps 744 mmHg 81%
    21:00 -2°C° 0 mm 4 mps 744 mmHg 82%
    22:00 -2°C° 0 mm 4 mps 745 mmHg 83%
    23:00 -2°C° 0 mm 4 mps 745 mmHg 82%

    Tomorrow, 17 October, Thursday

    Time Temperature Precipitation Wind Pressure Humidity
    00:00 -2°C° 0 mm 4 mps 745 mmHg 81%
    01:00 -2°C° 0 mm 4 mps 745 mmHg 80%
    02:00 -2°C° 0 mm 4 mps 746 mmHg 80%
    03:00 -1°C° 0 mm 3 mps 746 mmHg 81%
    04:00 -1°C° 0 mm 3 mps 747 mmHg 81%
    05:00 -3°C° 0 mm 4 mps 747 mmHg 81%
    06:00 -3°C° 0 mm 4 mps 747 mmHg 81%
    07:00 -3°C° 0 mm 4 mps 747 mmHg 81%
    08:00 -2°C° 0 mm 4 mps 747 mmHg 78%
    09:00 -2°C° 0 mm 4 mps 747 mmHg 74%
    10:00 -1°C° 0 mm 4 mps 747 mmHg 71%
    11:00 -1°C° 0 mm 4 mps 747 mmHg 70%
    12:00 0°C° 0 mm 3 mps 747 mmHg 69%
    13:00 0°C° 0 mm 3 mps 747 mmHg 69%
    14:00 0°C° 0 mm 3 mps 747 mmHg 70%
    15:00 0°C° 0 mm 3 mps 747 mmHg 71%
    16:00 0°C° 0 mm 3 mps 747 mmHg 73%
    17:00 -1°C° 0 mm 2 mps 746 mmHg 78%
    18:00 -1°C° 0 mm 2 mps 746 mmHg 83%
    19:00 +1°C° 0 mm 1 mps 746 mmHg 89%
    20:00 +1°C° 0.4 mm 1 mps 745 mmHg 91%
    21:00 +1°C° 0.4 mm 1 mps 745 mmHg 94%
    22:00 +1°C° 0.4 mm 1 mps 744 mmHg 96%
    23:00 +1°C° 0.5 mm 1 mps 744 mmHg 96%

    Day after tomorrow, 18 October, Friday

    Time Temperature Precipitation Wind Pressure Humidity
    00:00 +1°C° 0.5 mm 1 mps 743 mmHg 97%
    01:00 +1°C° 0.5 mm 1 mps 742 mmHg 97%
    02:00 +1°C° 0.3 mm 1 mps 742 mmHg 97%
    03:00 0°C° 0.3 mm 1 mps 742 mmHg 97%
    04:00 0°C° 0.3 mm 1 mps 741 mmHg 97%
    05:00 0°C° 0.2 mm 1 mps 741 mmHg 97%
    06:00 -2°C° 0.2 mm 2 mps 741 mmHg 97%
    07:00 -2°C° 0.2 mm 2 mps 740 mmHg 97%
    08:00 -2°C° 0.3 mm 2 mps 740 mmHg 96%
    09:00 -1°C° 0.3 mm 3 mps 741 mmHg 94%
    10:00 -1°C° 0.3 mm 3 mps 741 mmHg 92%
    11:00 -1°C° 0.2 mm 4 mps 741 mmHg 91%
    12:00 -1°C° 0.2 mm 4 mps 741 mmHg 90%
    13:00 -1°C° 0.2 mm 4 mps 742 mmHg 88%
    14:00 -1°C° 0.1 mm 4 mps 742 mmHg 89%
    15:00 -2°C° 0.1 mm 4 mps 743 mmHg 89%
    16:00 -2°C° 0.1 mm 4 mps 744 mmHg 89%
    17:00 -3°C° 0.1 mm 4 mps 744 mmHg 88%
    18:00 -3°C° 0.1 mm 4 mps 745 mmHg 88%
    19:00 -5°C° 0.1 mm 5 mps 746 mmHg 88%
    20:00 -4°C° 0 mm 4 mps 747 mmHg 86%
    21:00 -4°C° 0 mm 4 mps 747 mmHg 85%
    22:00 -5°C° 0 mm 4 mps 748 mmHg 83%
    23:00 -5°C° 0 mm 3 mps 748 mmHg 87%

    19 October, Saturday

    Time Temperature Precipitation Wind Pressure Humidity
    00:00 -6°C° 0 mm 3 mps 749 mmHg 90%
    01:00 -6°C° 0 mm 2 mps 749 mmHg 93%
    02:00 -6°C° 0 mm 2 mps 750 mmHg 94%
    03:00 -7°C° 0 mm 2 mps 750 mmHg 95%
    04:00 -7°C° 0 mm 2 mps 751 mmHg 96%
    05:00 -6°C° 0 mm 1 mps 751 mmHg 96%
    06:00 -6°C° 0 mm 1 mps 751 mmHg 96%
    07:00 -7°C° 0 mm 1 mps 752 mmHg 96%
    08:00 -4°C° 0 mm 1 mps 752 mmHg 88%
    09:00 -3°C° 0 mm 1 mps 753 mmHg 81%
    10:00 -1°C° 0 mm 1 mps 753 mmHg 73%
    11:00 -1°C° 0 mm 1 mps 753 mmHg 69%
    12:00 0°C° 0 mm 1 mps 753 mmHg 65%
    13:00 +1°C° 0 mm 1 mps 753 mmHg 60%
    14:00 0°C° 0 mm 0 mps 753 mmHg 63%
    15:00 -1°C° 0 mm 0 mps 753 mmHg 66%
    16:00 -2°C° 0 mm 0 mps 753 mmHg 70%
    17:00 -3°C° 0 mm 0 mps 753 mmHg 73%
    18:00 -2°C° 0 mm 1 mps 753 mmHg 77%
    19:00 -3°C° 0 mm 1 mps 753 mmHg 80%
    20:00 -3°C° 0 mm 1 mps 754 mmHg 82%
    21:00 -4°C° 0 mm 1 mps 754 mmHg 83%
    22:00 -4°C° 0 mm 1 mps 754 mmHg 84%
    23:00 -4°C° 0 mm 1 mps 754 mmHg 85%

    20 October, Sunday

    Time Temperature Precipitation Wind Pressure Humidity
    00:00 -4°C° 0 mm 1 mps 754 mmHg 86%
    01:00 -4°C° 0 mm 1 mps 754 mmHg 87%
    02:00 -4°C° 0 mm 1 mps 753 mmHg 87%
    03:00 -6°C° 0 mm 2 mps 753 mmHg 87%
    04:00 -7°C° 0 mm 2 mps 753 mmHg 87%
    05:00 -6°C° 0 mm 2 mps 753 mmHg 86%
    06:00 -6°C° 0 mm 2 mps 753 mmHg 85%
    07:00 -6°C° 0 mm 2 mps 753 mmHg 84%
    08:00 -5°C° 0 mm 2 mps 753 mmHg 79%
    09:00 -4°C° 0 mm 3 mps 753 mmHg 74%
    10:00 -2°C° 0 mm 3 mps 752 mmHg 69%
    11:00 -2°C° 0 mm 4 mps 752 mmHg 69%
    12:00 -1°C° 0 mm 4 mps 751 mmHg 70%
    13:00 0°C° 0 mm 5 mps 751 mmHg 70%
    14:00 0°C° 0 mm 5 mps 751 mmHg 72%
    15:00 -1°C° 0 mm 5 mps 750 mmHg 73%
    16:00 -1°C° 0 mm 5 mps 750 mmHg 75%
    17:00 -1°C° 0 mm 5 mps 749 mmHg 75%
    18:00 -2°C° 0 mm 5 mps 749 mmHg 75%
    19:00 -3°C° 0 mm 6 mps 748 mmHg 75%
    20:00 -3°C° 0 mm 6 mps 748 mmHg 78%
    21:00 -2°C° 0 mm 6 mps 748 mmHg 80%
    22:00 -2°C° 0 mm 6 mps 747 mmHg 82%
    23:00 -2°C° 0.2 mm 6 mps 747 mmHg 86%

    21 October, Monday

    Time Temperature Precipitation Wind Pressure Humidity
    00:00 -2°C° 0.2 mm 6 mps 747 mmHg 89%
    01:00 -2°C° 0.2 mm 6 mps 747 mmHg 92%
    02:00 0°C° 0.1 mm 5 mps 746 mmHg 93%
    03:00 0°C° 0.1 mm 4 mps 746 mmHg 93%
    04:00 0°C° 0.1 mm 4 mps 746 mmHg 94%
    05:00 +1°C° 0.1 mm 4 mps 746 mmHg 94%
    06:00 +2°C° 0.1 mm 3 mps 746 mmHg 94%
    07:00 +2°C° 0.1 mm 3 mps 745 mmHg 94%
    08:00 +2°C° 0.1 mm 3 mps 745 mmHg 94%
    09:00 +2°C° 0.1 mm 3 mps 745 mmHg 94%
    10:00 +3°C° 0.1 mm 2 mps 746 mmHg 94%
    11:00 +3°C° 0.1 mm 2 mps 746 mmHg 94%
    12:00 +3°C° 0.1 mm 2 mps 746 mmHg 95%
    13:00 +4°C° 0.1 mm 2 mps 746 mmHg 95%
    14:00 +4°C° 0 mm 1 mps 747 mmHg 95%
    15:00 +4°C° 0 mm 1 mps 747 mmHg 96%
    16:00 +4°C° 0 mm 1 mps 747 mmHg 96%
    17:00 +4°C° 0 mm 1 mps 748 mmHg 96%
    18:00 +4°C° 0 mm 1 mps 748 mmHg 97%
    19:00 +3°C° 0 mm 1 mps 748 mmHg 97%
    20:00 +2°C° 0 mm 0 mps 748 mmHg 98%
    21:00 +2°C° 0 mm 0 mps 748 mmHg 98%
    22:00 +2°C° 0 mm 0 mps 748 mmHg 98%
    23:00 +3°C° 0 mm 1 mps 748 mmHg 98%
    Show more